NOAA 16 DEB, 41163

Orbit data source: Space-Track

NOAA 16 DEB, 41163 is space debris in SSO originally from a launch on Thu, 21 Sep 2000 UTC launched from the Air Force Western Test Range (AFWTR). Debris objects in space refer to the collection of defunct objects orbiting the Earth. Examples of debris include non-operational satellites, rocket bodies, and fragments generated from explosions, collisions, or faulty payload assembly.

Loading next visibility...
Identifier
41163, 2000-055CW
Orbit
SSO
Country
Flag of USUS
Related business
Manufacturer
Unknown
Mission
Spacecraft
Bus & Motor
Unknown
Mass
Unknown
Launch date (UTC)
2000-09-21 (25 years ago)
Launch vehicle
Unknown
Launch site
Air Force Western Test Range (AFWTR)
Object type
Payload
Rocket body
Debris
Shape & HBR
Unknown shape, 0.1 m
Radar Cross Section
Small (<0.1 m²)

Expand to show TLE details & history
Last TLE update: 1 day ago

TLE from 1 day ago
0 NOAA 16 DEB
1 41163U 00055CW  26037.29203505  .00060884  00000-0  76149-2 0  9994
2 41163  99.0149 340.7439 0031110 347.2624  12.7796 14.81663145533768
Epoch: 2026-02-06T07:00Z
TLE epoch observation values (Epoch: 2026-02-06T07:00:31.828Z)
Latitude
-0.00001°
Longitude
99.17928°
Altitude
605.822 km
Speed
7.568 km/s
True Right ascension
22h 42m 58s
True Declination
0° 00' 00"
Sunlit
Object was in daylight at epoch
Visualization orbit readout
Latitude
Unknown
Longitude
Unknown
Altitude
Unknown
Speed
Unknown
Apparent Right ascension
Unknown
Apparent Declination
Unknown
Sunlit
N/A
Visualization observer readout
Local Sidereal Time
12:42:17
Azimuth
Unknown
Elevation
Unknown
Doppler factor
Unknown
Orbital elements
Apogee altitude
642.946 km
Perigee altitude
599.396 km
Semi-major axis
6,999.308 km
Eccentricity
0.00311
Inclination
99.0149°
RAAN
340.7439°
Arg. of periapsis
347.2624°
True anomaly
12.85876°
Mean anomaly
12.7796°
Eccentric anomaly
12.81915°
Mean motion
3.70647 °/min
Orbital period
97.13 mins
BSTAR
0.0076149
Loading maneuver chart data...
Computing Atmospheric mass density...
Loading historical data...
Loading historical data...
Loading historical data...
Loading historical data...
Loading historical data...
Loading historical data...
Loading historical data...

Documentation

Showing up to 5 results
|